Location: Absher
(46.5583°N, 107.9840°W)
Time: 13:39:44
(UTC+00:00)

BEESAT - Visible Passes

Search period start: 27 March 2023 00:00
Search period end: 06 April 2023 00:00
Orbit: 698 x 704 km, 98.5° (Epoch: 27 March)

Date Brightness Start Highest point End Pass type
(mag) Time Alt. Az. Time Alt. Az. Time Alt. Az.
27 Mar ? 03:22:22 10° NE 03:23:32 15° NE 03:23:32 15° NE visible
27 Mar ? 04:59:22 10° N 05:02:24 35° NNW 05:02:24 35° NNW visible
28 Mar ? 04:04:02 10° NNE 04:06:37 30° NE 04:06:37 30° NE visible
28 Mar ? 05:42:27 10° NNW 05:45:29 21° NW 05:45:29 21° NW visible
29 Mar ? 03:10:03 10° NE 03:10:49 12° ENE 03:10:49 12° ENE visible
29 Mar ? 04:46:25 10° N 04:49:42 42° N 04:49:42 42° N visible
30 Mar ? 03:51:19 10° NNE 03:53:54 27° NE 03:53:54 27° NE visible
30 Mar ? 05:29:18 10° N 05:32:46 27° NW 05:32:46 27° NW visible
31 Mar ? 04:33:29 10° NNE 04:36:59 49° N 04:36:59 49° N visible
31 Mar ? 06:13:10 10° NNW 06:15:14 13° NW 06:15:50 12° WNW visible
01 Apr ? 03:38:39 10° NE 03:41:10 24° ENE 03:41:10 24° ENE visible
01 Apr ? 05:16:13 10° N 05:20:02 34° NW 05:20:02 34° NW visible
02 Apr ? 04:20:37 10° NNE 04:24:14 50° NE 04:24:14 50° NE visible
02 Apr ? 05:59:37 10° NNW 06:02:32 16° WNW 06:03:06 16° WNW visible
03 Apr ? 03:26:05 10° NE 03:28:25 20° ENE 03:28:25 20° ENE visible
03 Apr ? 05:03:10 10° N 05:07:17 45° NW 05:07:17 45° NW visible
04 Apr ? 04:07:47 10° NNE 04:11:27 45° ENE 04:11:27 45° ENE visible
04 Apr ? 05:46:17 10° NNW 05:49:47 21° WNW 05:50:20 20° WNW visible
05 Apr ? 03:13:39 10° NE 03:15:38 16° ENE 03:15:38 16° ENE visible
05 Apr ? 04:50:10 10° N 04:54:31 59° NW 04:54:31 59° NW visible
